Total_Precipitation_Accumulation
0.35 0.24 0.13 0.12 0.09 0.06 0.02 0.01 0.00 0.00 0.00 0.01 0.01 0.00 0.00 0.00 0.00 0.01 0.03 0.03 0.04 0.05 0.03 0.04 0.04 0.01 0.01 0.02 0.09 0.18 0.25 0.26 0.38 0.45 0.42 0.39 0.33 0.25 0.14 0.06 0.03 0.03 0.01
0.35 0.31 0.18 0.13 0.09 0.05 0.03 0.01 0.00 0.00 0.01 0.01 0.01 0.00 0.00 0.00 0.00 0.00 0.03 0.03 0.05 0.09 0.09 0.11 0.10 0.07 0.06 0.05 0.08 0.16 0.24 0.25 0.29 0.37 0.44 0.52 0.55 0.41 0.24 0.11 0.10 0.08 0.04
0.38 0.37 0.29 0.20 0.14 0.10 0.07 0.02 0.00 0.00 0.01 0.01 0.00 0.00 0.00 0.00 0.00 0.00 0.01 0.02 0.04 0.10 0.17 0.22 0.23 0.20 0.15 0.12 0.12 0.16 0.21 0.23 0.25 0.30 0.34 0.36 0.37 0.37 0.32 0.23 0.21 0.19 0.16
0.54 0.52 0.43 0.31 0.24 0.24 0.19 0.10 0.02 0.01 0.00 0.00 0.00 0.00 0.00 0.00 0.00 0.00 0.00 0.00 0.01 0.05 0.12 0.19 0.30 0.36 0.32 0.25 0.16 0.12 0.13 0.14 0.15 0.17 0.17 0.17 0.17 0.21 0.25 0.27 0.29 0.33 0.32
0.65 0.65 0.64 0.57 0.52 0.46 0.34 0.20 0.09 0.03 0.01 0.01 0.00 0.00 0.00 0.00 0.00 0.00 0.00 0.00 0.00 0.00 0.01 0.04 0.11 0.14 0.22 0.30 0.21 0.12 0.09 0.08 0.08 0.08 0.08 0.08 0.08 0.10 0.15 0.21 0.24 0.28 0.31
0.96 0.85 0.85 0.77 0.71 0.66 0.56 0.42 0.28 0.15 0.07 0.04 0.01 0.01 0.01 0.00 0.00 0.00 0.00 0.00 0.00 0.00 0.00 0.00 0.02 0.02 0.08 0.23 0.26 0.15 0.08 0.07 0.09 0.08 0.06 0.05 0.05 0.05 0.07 0.11 0.14 0.17 0.20
1.12 1.09 1.05 0.98 0.87 0.80 0.75 0.71 0.63 0.45 0.26 0.11 0.11 0.11 0.06 0.02 0.01 0.00 0.00 0.00 0.00 0.00 0.00 0.00 0.02 0.03 0.03 0.04 0.07 0.09 0.09 0.10 0.13 0.11 0.08 0.05 0.04 0.03 0.04 0.05 0.08 0.10 0.10
1.09 1.01 1.12 1.19 1.09 1.05 1.04 1.04 0.98 0.84 0.56 0.30 0.38 0.51 0.35 0.24 0.09 0.02 0.01 0.01 0.00 0.00 0.00 0.01 0.01 0.01 0.01 0.03 0.01 0.03 0.06 0.09 0.09 0.07 0.05 0.04 0.03 0.02 0.02 0.02 0.03 0.05 0.06
1.36 1.26 1.30 1.39 1.27 1.23 1.21 1.17 1.08 1.15 1.05 0.73 0.60 0.76 0.62 0.51 0.45 0.14 0.03 0.02 0.02 0.01 0.01 0.01 0.01 0.01 0.01 0.01 0.01 0.01 0.02 0.03 0.04 0.04 0.03 0.02 0.02 0.01 0.02 0.03 0.05 0.06 0.05
1.57 1.44 1.40 1.41 1.38 1.35 1.24 1.13 1.13 1.28 1.47 1.29 1.02 0.81 0.64 0.52 0.53 0.42 0.20 0.08 0.04 0.02 0.01 0.01 0.01 0.01 0.01 0.01 0.01 0.01 0.01 0.01 0.04 0.06 0.04 0.03 0.02 0.02 0.03 0.04 0.05 0.05 0.05
1.57 1.43 1.35 1.32 1.34 1.35 1.30 1.30 1.34 1.42 1.52 1.61 1.42 1.08 0.82 0.67 0.47 0.45 0.44 0.29 0.15 0.07 0.04 0.03 0.02 0.01 0.01 0.02 0.02 0.02 0.02 0.01 0.03 0.06 0.06 0.05 0.04 0.03 0.03 0.03 0.03 0.04 0.03
1.39 1.36 1.32 1.24 1.16 1.15 1.17 1.27 1.43 1.43 1.45 1.52 1.43 1.13 0.91 0.77 0.69 0.63 0.54 0.49 0.41 0.20 0.11 0.08 0.05 0.03 0.02 0.02 0.02 0.04 0.02 0.02 0.03 0.04 0.05 0.04 0.04 0.03 0.03 0.03 0.03 0.04 0.03
1.18 1.19 1.18 1.12 0.99 0.93 0.97 1.10 1.23 1.21 1.20 1.22 1.18 1.03 0.92 0.80 0.72 0.69 0.66 0.65 0.59 0.33 0.18 0.13 0.09 0.06 0.05 0.03 0.04 0.04 0.02 0.02 0.02 0.03 0.03 0.03 0.02 0.03 0.05 0.05 0.05 0.07 0.06
0.98 0.90 0.90 0.89 0.87 0.84 0.82 0.87 0.92 0.91 0.92 0.96 0.93 0.83 0.75 0.76 0.78 0.70 0.64 0.68 0.65 0.57 0.39 0.18 0.11 0.09 0.07 0.05 0.06 0.06 0.03 0.03 0.02 0.03 0.03 0.02 0.02 0.02 0.03 0.05 0.07 0.10 0.09
0.73 0.69 0.71 0.75 0.79 0.71 0.64 0.65 0.67 0.68 0.73 0.74 0.75 0.75 0.70 0.70 0.73 0.73 0.67 0.63 0.59 0.57 0.54 0.34 0.20 0.11 0.09 0.06 0.06 0.04 0.02 0.02 0.03 0.03 0.02 0.01 0.01 0.02 0.02 0.03 0.04 0.05 0.05
0.67 0.67 0.66 0.59 0.59 0.58 0.57 0.59 0.60 0.61 0.59 0.60 0.64 0.67 0.67 0.66 0.68 0.67 0.67 0.67 0.61 0.55 0.54 0.42 0.31 0.18 0.16 0.12 0.10 0.05 0.03 0.03 0.02 0.02 0.02 0.02 0.02 0.01 0.02 0.02 0.02 0.02 0.02
0.55 0.54 0.50 0.49 0.55 0.55 0.51 0.55 0.55 0.53 0.52 0.52 0.51 0.50 0.57 0.65 0.64 0.61 0.64 0.64 0.65 0.63 0.55 0.48 0.32 0.22 0.23 0.21 0.21 0.12 0.06 0.05 0.05 0.05 0.03 0.02 0.02 0.02 0.02 0.02 0.01 0.01 0.01
0.40 0.46 0.47 0.44 0.51 0.61 0.62 0.61 0.57 0.50 0.45 0.42 0.38 0.38 0.39 0.44 0.50 0.55 0.60 0.58 0.61 0.62 0.57 0.52 0.41 0.32 0.32 0.29 0.30 0.25 0.17 0.14 0.15 0.18 0.18 0.09 0.06 0.07 0.05 0.03 0.02 0.01 0.01
0.31 0.36 0.46 0.44 0.45 0.52 0.60 0.59 0.52 0.48 0.43 0.39 0.37 0.35 0.33 0.33 0.40 0.44 0.51 0.59 0.60 0.56 0.54 0.48 0.49 0.47 0.38 0.33 0.33 0.29 0.25 0.30 0.28 0.24 0.31 0.26 0.19 0.14 0.09 0.07 0.06 0.04 0.02
0.35 0.33 0.32 0.32 0.36 0.43 0.52 0.49 0.43 0.42 0.38 0.35 0.37 0.36 0.34 0.34 0.34 0.38 0.44 0.55 0.62 0.63 0.59 0.51 0.48 0.49 0.44 0.37 0.33 0.34 0.41 0.47 0.43 0.33 0.34 0.36 0.33 0.25 0.19 0.17 0.14 0.10 0.08
0.22 0.24 0.19 0.19 0.23 0.30 0.33 0.31 0.32 0.32 0.37 0.37 0.36 0.34 0.34 0.30 0.28 0.32 0.31 0.41 0.49 0.58 0.62 0.62 0.57 0.52 0.46 0.39 0.36 0.38 0.41 0.48 0.47 0.49 0.44 0.40 0.37 0.33 0.30 0.25 0.20 0.17 0.16
0.09 0.14 0.13 0.15 0.17 0.19 0.21 0.17 0.20 0.27 0.35 0.36 0.36 0.35 0.33 0.31 0.28 0.23 0.19 0.20 0.28 0.37 0.46 0.54 0.60 0.58 0.56 0.50 0.48 0.45 0.42 0.40 0.40 0.47 0.44 0.44 0.42 0.37 0.34 0.29 0.30 0.31 0.25
0.06 0.08 0.08 0.12 0.15 0.12 0.10 0.08 0.18 0.32 0.35 0.34 0.31 0.38 0.42 0.39 0.41 0.41 0.30 0.22 0.22 0.21 0.23 0.31 0.42 0.50 0.51 0.52 0.46 0.45 0.46 0.49 0.42 0.39 0.34 0.33 0.32 0.29 0.25 0.22 0.22 0.23 0.24
0.03 0.07 0.07 0.14 0.13 0.08 0.06 0.06 0.13 0.23 0.29 0.30 0.28 0.35 0.48 0.52 0.55 0.55 0.47 0.42 0.35 0.28 0.23 0.21 0.31 0.36 0.37 0.43 0.45 0.48 0.46 0.38 0.33 0.27 0.21 0.17 0.16 0.15 0.15 0.15 0.15 0.14 0.14
0.02 0.05 0.08 0.10 0.06 0.03 0.03 0.04 0.08 0.22 0.30 0.31 0.26 0.32 0.47 0.54 0.61 0.62 0.56 0.57 0.49 0.34 0.27 0.29 0.26 0.24 0.26 0.32 0.35 0.40 0.42 0.36 0.31 0.27 0.20 0.13 0.11 0.10 0.09 0.09 0.08 0.07 0.07
0.01 0.02 0.04 0.06 0.04 0.03 0.03 0.02 0.04 0.13 0.22 0.27 0.28 0.32 0.47 0.53 0.56 0.52 0.50 0.64 0.65 0.48 0.31 0.29 0.30 0.30 0.29 0.35 0.45 0.52 0.61 0.56 0.44 0.36 0.27 0.21 0.20 0.19 0.17 0.15 0.09 0.05 0.04